Tracking 23752 objects as of 24-Oct-2021
HD Live streaming from Space Station
objects crossing your sky now

SL-12 DEB

Track SL-12 DEB now!
10-day predictions


NORAD ID: 27805
Int'l Code: 1992-047L
Perigee: 393.4 km
Apogee: 12,332.4 km
Inclination: 65.1 °
Period: 238.3 minutes
Semi major axis: 12733 km
RCS: 0.048 m2 (small)
Launch date: July 30, 1992
Source: Commonwealth of Independent States (former USSR) (CIS)
Launch site: TYURATAM MISSILE AND SPACE COMPLEX (TTMTR)

Note: This is SATELLITE DEBRIS
aabbcc
Your satellite tracking list
Your tracking list is empty




NASA's NSSDC Master Catalog

Two Line Element Set (TLE):
1 27805U 92047L   21296.49406388  .00000758  00000-0  33107-3 0  9993
2 27805  65.1334 230.9385 4687896 218.7538  96.0855  6.04174482414972
Source of the keplerian elements: AFSPC